This demonstration page uses our WeatherBlox Daily Observations layout. Learn more.

Left ArrowRight Arrow

36.17497, -115.13722

Hourly Observations for January 29, 2019

Temp ( °F °C ) Dew Point ( °F °C ) Humidity (%) Winds ( mph kmh ) Pressure ( in mb ) Visibility ( mi km ) Precip ( " mm )
12:53 am 00:53 Clear 54 12.2 29 -1.7 38 38 SW 7 11 30.08 1019 10 16.0934 N/A
1:53 am 01:53 Clear 53 11.7 30 -1.1 41 41 WSW 6 9 30.06 1018 10 16.0934 N/A
2:53 am 02:53 Clear 51 10.6 31 -0.6 46 46 NNW 3 6 30.06 1018 10 16.0934 N/A
3:53 am 03:53 Clear 51 10.6 31 -0.6 46 46 N 6 9 30.04 1017 10 16.0934 N/A
4:53 am 04:53 Clear 51 10.6 31 -0.6 46 46 Calm 30.04 1017 10 16.0934 N/A
5:53 am 05:53 Clear 50 10 32 0 50 50 N 5 7 30.04 1017 10 16.0934 N/A
6:53 am 06:53 Sunny 49 9.4 32 0 52 52 Calm 30.04 1017 10 16.0934 N/A
7:53 am 07:53 Sunny 50 10 32 0 50 50 Calm 30.05 1018 10 16.0934 N/A
8:53 am 08:53 Sunny 54 12.2 31 -0.6 42 42 Calm 30.06 1018 10 16.0934 N/A
9:53 am 09:53 Sunny 56 13.3 30 -1.1 37 37 Calm 30.06 1018 10 16.0934 N/A
10:53 am 10:53 Sunny 58 14.4 29 -1.7 33 33 Calm 30.05 1018 10 16.0934 N/A
11:53 am 11:53 Sunny 61 16.1 29 -1.7 30 30 Calm 30.02 1017 10 16.0934 N/A
12:53 pm 12:53 Sunny 62 16.7 29 -1.7 29 29 S 3 6 29.99 1016 10 16.0934 N/A
1:53 pm 13:53 Sunny 62 16.7 28 -2.2 28 28 S 5 7 29.97 1015 10 16.0934 N/A
2:53 pm 14:53 Sunny 62 16.7 27 -2.8 26 26 Calm 29.97 1015 10 16.0934 N/A
3:53 pm 15:53 Mostly Sunny 62 16.7 27 -2.8 26 26 Calm 29.95 1014 10 16.0934 N/A
4:53 pm 16:53 Mostly Sunny 62 16.7 27 -2.8 26 26 Calm 29.95 1014 10 16.0934 N/A
5:53 pm 17:53 Clear 61 16.1 27 -2.8 27 27 WSW 3 6 29.96 1014 10 16.0934 N/A
6:53 pm 18:53 Clear 60 15.6 29 -1.7 31 31 NW 3 6 29.97 1015 10 16.0934 N/A
7:53 pm 19:53 Clear 58 14.4 31 -0.6 36 36 N 5 7 29.97 1015 10 16.0934 N/A
8:53 pm 20:53 Clear 57 13.9 32 0 39 39 Calm 29.98 1015 10 16.0934 N/A
9:53 pm 21:53 Clear 55 12.8 32 0 42 42 Calm 29.99 1016 10 16.0934 N/A
10:53 pm 22:53 Clear 53 11.7 32 0 45 45 WSW 3 6 30 1016 10 16.0934 N/A
11:53 pm 23:53 Clear 51 10.6 32 0 48 48 W 5 7 30 1016 10 16.0934 N/A

Powered by AerisWeather